Skip Page Navigation
NASA JPL Caltech
NASA Logo - Jet Propulsion Laboratory + View the NASA Portal
+ Near-Earth Object (NEO) Program
Search JPL
JPL Home Earth Solar System Stars & Galaxies Technology
JPL Solar System Dynamics
BODIES ORBITS EPHEMERIDES TOOLS PHYSICAL DATA DISCOVERY FAQ SITE MAP
JPL Small-Body Database Browser
Search: [ help ]  
(2008 OX1)
Classification: Apollo [NEO, PHA]          SPK-ID: 3421513
Ephemeris | Orbit Diagram | Orbital Elements | Physical Parameters | Close-Approach Data ]

[ hide orbit diagram ]
Orbit Diagram
Note: Make sure you have Java enabled on your browser to see the applet. This applet is provided as a 3D orbit visualization tool. The applet was implemented using 2-body methods, and hence should not be used for determining accurate long-term trajectories (over several years or decades) or planetary encounter circumstances. For accurate long-term ephemerides, please instead use our Horizons system.
Orbit Viewer

Additional Notes: the orbits shown in the applet are color coded. The planets are white lines, and the asteroid/comet is a blue line. The bright white line indicates the portion of the orbit that is above the ecliptic plane, and the darker portion is below the ecliptic plane. Likewise for the asteroid/comet orbit, the light blue indicates the portion above the ecliptic plane, and the dark blue the portion below the ecliptic plane.

Orbit Viewer applet originally written and kindly provided by Osamu Ajiki (AstroArts), and further modified by Ron Baalke (JPL).


Orbital Elements at Epoch 2456400.5 (2013-Apr-18.0) TDB
Reference: JPL 20 (heliocentric ecliptic J2000)
 Element Value Uncertainty (1-sigma)   Units 
e .2774982142217639 3.0434e-07  
a 1.206394950573821 6.2918e-08 AU
q .8716225061434324 4.0385e-07 AU
i 29.73820808278218 7.8713e-05 deg
node 304.8659271913771 5.0785e-06 deg
peri 281.3382621277569 6.9871e-05 deg
M 253.6654836779218 0.000119 deg
tp 2456543.456679531785
(2013-Sep-07.95667953)
0.00017052 JED
period 483.9858816450669
1.33
3.7863e-05
1.037e-07
d
yr
n .7438233503348503 5.819e-08 deg/d
Q 1.541167395004209 8.0378e-08 AU
  Orbit Determination Parameters
   # obs. used (total)      174  
   data-arc span      1461 days (4.00 yr)  
   first obs. used      2008-07-26  
   last obs. used      2012-07-26  
   planetary ephem.      DE405  
   SB-pert. ephem.      SB405-CPV-2  
   condition code      1  
   fit RMS      .72366  
   data source      ORB  
   producer      Otto Matic  
   solution date      2012-Jul-30 00:53:12  

Additional Information
 Earth MOID = .0359504 AU 
 T_jup = 5.116 
[ show covariance matrix ]

Ephemeris | Orbit Diagram | Orbital Elements | Physical Parameters | Close-Approach Data ]

Physical Parameter Table
Parameter Symbol Value Units Sigma Reference Notes
absolute magnitude H 21.486 mag .40569 20 autocmod 2.5b

[ show close-approach data ]
Ephemeris | Orbit Diagram | Orbital Elements | Physical Parameters | Close-Approach Data ]
ABOUT SSD CREDITS/AWARDS PRIVACY/COPYRIGHT GLOSSARY LINKS
FirstGov 2013-May-19 23:18 UT
(server date/time)  
NASA Home Page
Site Manager:   Donald K. Yeomans
Webmaster  Alan B. Chamberlin